EW9355 Weather Reports


Display with metric or nautical units.
time (UTC)temp
F
wind
direction
speed
MPH
gust
MPH
rain 1hr
in
rain 24hr
in
rain mn
in
humidity
%
barometer
mb
20260507144519 61 344 0.0 3.0 0.00 0.24 0.00 72 1017.9
20260507143013 60 360 0.0 2.0 0.00 0.24 0.00 76 1018.2
20260507141510 59 64 0.0 0.0 0.00 0.24 0.00 78 1018.1
20260507140022 58 5 0.0 0.0 0.00 0.24 0.00 83 1018.4
20260507134508 57 96 0.0 0.0 0.00 0.24 0.00 86 1018.6
20260507133008 56 96 0.0 0.0 0.00 0.24 0.00 88 1018.6
20260507131506 55 95 0.0 0.0 0.00 0.24 0.00 89 1018.5
20260507130006 54 95 0.0 0.0 0.00 0.24 0.00 90 1018.4
20260507124504 54 95 0.0 0.0 0.00 0.24 0.00 90 1018.4
20260507123003 53 95 0.0 0.0 0.00 0.24 0.00 90 1018.2
20260507121502 53 95 0.0 0.0 0.00 0.24 0.00 90 1018.2
20260507120059 53 95 0.0 0.0 0.00 0.24 0.00 90 1018.0
20260507114558 53 95 0.0 0.0 0.00 0.24 0.00 90 1017.6
20260507113131 53 95 0.0 0.0 0.00 0.24 0.00 89 1017.7
20260507111557 53 95 0.0 0.0 0.00 0.24 0.00 89 1017.4
20260507110053 53 95 0.0 0.0 0.00 0.24 0.00 89 1017.3
20260507104600 53 95 0.0 0.0 0.00 0.24 0.00 89 1016.6
20260507103049 54 95 0.0 0.0 0.00 0.24 0.00 88 1016.6
20260507101621 54 95 0.0 0.0 0.00 0.24 0.00 88 1016.3
20260507100053 54 95 0.0 0.0 0.00 0.24 0.00 88 1016.2
20260507094543 54 95 0.0 0.0 0.00 0.24 0.00 87 1016.0
20260507093041 54 95 0.0 0.0 0.00 0.24 0.00 87 1015.8
20260507091542 55 95 0.0 0.0 0.00 0.24 0.00 86 1015.6
20260507090039 55 95 0.0 0.0 0.00 0.24 0.00 85 1015.5
20260507084549 55 95 0.0 0.0 0.00 0.24 0.00 84 1015.6
20260507083034 56 95 0.0 0.0 0.00 0.24 0.00 84 1015.5
20260507081533 56 96 0.0 1.0 0.00 0.24 0.00 83 1015.5
20260507080032 56 74 0.0 1.0 0.00 0.24 0.00 83 1015.4
20260507074530 56 56 0.0 0.0 0.00 0.24 0.00 83 1015.3
20260507073028 56 49 0.0 2.0 0.00 0.24 0.00 83 1014.9
20260507071532 56 70 0.0 0.0 0.00 0.24 0.00 82 1015.0
20260507070026 56 88 0.0 0.0 0.00 0.24 0.00 82 1015.2
20260507064524 57 79 0.0 0.0 0.00 0.24 0.00 81 1015.1
20260507063023 57 75 0.0 1.0 0.00 0.24 0.00 81 1015.0
20260507061526 57 61 0.0 1.0 0.00 0.24 0.00 81 1015.0
20260507060032 57 96 0.0 2.0 0.00 0.24 0.00 81 1015.0
20260507054530 58 78 0.0 0.0 0.00 0.24 0.00 82 1014.9
20260507053017 58 53 0.0 1.0 0.00 0.24 0.00 81 1014.8
20260507051515 58 163 0.0 3.0 0.00 0.24 0.00 81 1015.0
20260507050035 59 65 0.0 0.0 0.00 0.24 0.00 80 1015.0
20260507044520 59 84 0.0 1.0 0.00 0.24 0.24 80 1015.0
20260507043012 59 113 0.0 1.0 0.00 0.24 0.24 80 1015.2
20260507041512 59 95 0.0 3.0 0.00 0.24 0.24 80 1015.3
20260507040014 59 113 0.0 3.0 0.00 0.24 0.24 79 1015.3
20260507034511 60 90 0.0 1.0 0.00 0.24 0.24 79 1015.3
20260507031508 60 76 0.0 6.0 0.00 0.24 0.24 80 1015.1
20260507030007 60 5 0.0 2.0 0.00 0.24 0.24 79 1015.0
20260507024503 60 68 0.0 1.0 0.00 0.24 0.24 80 1014.5
20260507023002 60 69 0.0 1.0 0.00 0.24 0.24 80 1014.2
20260507021613 60 73 0.0 1.0 0.00 0.24 0.24 80 1014.0
20260507020058 60 17 0.0 2.0 0.00 0.24 0.24 81 1013.7
20260507014559 60 87 0.0 3.0 0.00 0.24 0.24 81 1013.2
20260507013057 60 93 0.0 2.0 0.00 0.24 0.24 81 1013.0
20260507011559 60 80 0.0 1.0 0.00 0.24 0.24 81 1012.7
20260507010056 60 73 0.0 1.0 0.00 0.24 0.24 80 1012.5
20260507004556 60 74 0.0 1.0 0.00 0.24 0.24 80 1012.5
20260507003056 60 45 0.0 1.0 0.00 0.24 0.24 80 1012.5
20260507001558 60 36 0.0 2.0 0.00 0.24 0.24 79 1012.2
20260507000054 61 14 0.0 3.0 0.00 0.24 0.24 79 1011.9
20260506234614 61 121 0.0 1.0 0.00 0.24 0.24 78 1011.7
20260506233052 61 76 0.0 1.0 0.00 0.24 0.24 77 1011.8
20260506231621 62 62 0.0 2.0 0.00 0.24 0.24 76 1011.6
20260506230050 62 109 0.0 2.0 0.00 0.24 0.24 74 1011.3
20260506224550 62 32 0.0 2.0 0.00 0.24 0.24 75 1011.2
20260506223056 62 34 0.0 3.0 0.00 0.24 0.24 74 1011.3
20260506221551 62 5 0.0 2.0 0.00 0.24 0.24 74 1011.3
20260506220048 62 60 0.0 2.0 0.00 0.24 0.24 74 1010.6
20260506214548 62 67 0.0 1.0 0.00 0.24 0.24 75 1010.6
20260506213047 63 57 0.0 2.0 0.00 0.24 0.24 73 1011.0
20260506211546 63 83 0.0 1.0 0.00 0.24 0.24 72 1011.2
20260506210046 63 85 0.0 2.0 0.00 0.24 0.24 74 1011.2
20260506204554 62 86 0.0 2.0 0.00 0.24 0.24 74 1011.4
20260506203044 63 273 0.0 3.0 0.00 0.24 0.24 73 1011.5
20260506201544 61 30 0.0 3.0 0.00 0.24 0.24 76 1011.7
20260506194548 59 5 0.0 3.0 0.00 0.24 0.24 80 1011.9
20260506193042 58 26 0.0 1.0 0.00 0.24 0.24 82 1012.2
20260506191541 58 67 0.0 1.0 0.00 0.24 0.24 82 1012.4
20260506190041 58 88 0.0 1.0 0.00 0.24 0.24 82 1012.3
20260506184541 58 119 0.0 1.0 0.00 0.24 0.24 83 1012.4
20260506183054 57 69 0.0 1.0 0.00 0.24 0.24 85 1011.8
20260506181544 56 81 0.0 3.0 0.00 0.24 0.24 86 1010.7
20260506180038 56 342 0.0 3.0 0.00 0.24 0.24 88 1010.6
20260506174538 56 87 0.0 1.0 0.00 0.24 0.24 89 1011.3
20260506173037 55 66 0.0 1.0 0.00 0.24 0.24 89 1011.7
20260506171543 55 69 0.0 1.0 0.00 0.24 0.24 88 1011.9
20260506170043 55 96 0.0 1.0 0.00 0.24 0.24 88 1011.8
20260506164545 55 5 0.0 1.0 0.00 0.24 0.24 88 1011.6
20260506163036 55 84 0.0 1.0 0.01 0.24 0.24 88 1011.9
20260506161539 56 10 0.0 1.0 0.24 0.24 0.24 90 1012.4
20260506160043 55 108 0.0 1.0 0.24 0.24 0.24 89 1011.8
20260506154533 54 132 0.0 2.0 0.24 0.24 0.24 88 1011.1
20260506153032 55 296 0.0 1.0 0.23 0.23 0.23 86 1012.9
20260506151535 55 14 0.0 1.0 0.00 0.00 0.00 85 1012.9
20260506150032 55 355 0.0 8.0 0.00 0.00 0.00 84 1012.8